Home > Weather > Rovaniemi > Past weeks

Flag for Finland Past Weather in Rovaniemi, Finland — Yesterday and Last 2 Weeks

Now
59 °F

Sunny.


Feels Like: 59 °F
Forecast: 56 / 71 °F
Wind: 5 mph from South

Location: Rovaniemi Airport

Current Time: Jul 2, 2016 at 1:34:31 AM

Latest Report: Jul 2, 2016 at 1:20 AM


Visibility: 10 mi

Pressure: 29.89 "Hg

Humidity: 82%

Dew Point: 54 °F

Location of RovaniemiLocation

Past Weather in Rovaniemi — Graph

°F

Rovaniemi Temperature Yesterday

Maximum temperature yesterday: 68 °F (at 3:50 PM)
Minimum temperature yesterday: 57 °F (at 12:20 AM)
Average temperature yesterday: 62 °F

High & Low Weather Summary for the Past Weeks

 TemperatureHumidityPressure
High73 °F (Jun 30, 3:20 PM)100% (Jun 17, 2:50 PM)30.15 "Hg (Jun 17, 2:50 PM)
Low46 °F (Jun 20, 12:20 AM)38% (Jun 23, 3:20 PM)29.39 "Hg (Jun 18, 9:20 PM)
Average59 °F75%29.87 "Hg
* Reported Jun 17 12:20 AM — Jul 2 12:20 AM, Rovaniemi, Weather by CustomWeather, © 2016

Note: Actual official high and low records may vary slightly from our data, if they occured in-between our weather recording intervals... More about our weather records

Advertising

Rovaniemi Weather History for the Previous 24 Hours

Scroll right to see more
 ConditionsComfort  
Time TempWeatherWind HumidityBarometerVisibility
12:20 AM
Sat, Jul 2
59 °FSunny.5 mph82%29.89 "Hg10 mi
11:50 PM
Fri, Jul 1
59 °FSunny.5 mph82%29.89 "Hg10 mi
11:20 PM61 °FSunny.7 mph77%29.89 "Hg10 mi
10:50 PM63 °FSunny.7 mph73%29.89 "Hg10 mi
10:20 PM63 °FSunny.8 mph73%29.86 "Hg10 mi
9:50 PM63 °FSunny.8 mph73%29.86 "Hg10 mi
9:20 PM64 °FSunny.10 mph68%29.86 "Hg10 mi
8:50 PM66 °FSunny.12 mph60%29.86 "Hg10 mi
8:20 PM68 °FSunny.14 mph53%29.86 "Hg10 mi
7:50 PM68 °FSunny.12 mph53%29.86 "Hg10 mi
7:20 PM68 °FSunny.13 mph53%29.86 "Hg10 mi
6:50 PM68 °FSunny.12 mph49%29.86 "Hg10 mi
6:20 PM68 °FSunny.13 mph49%29.86 "Hg10 mi
5:50 PM68 °FPassing clouds.10 mph53%29.86 "HgN/A
5:20 PM68 °FPassing clouds.10 mph53%29.86 "HgN/A
4:50 PM68 °FSunny.15 mph49%29.86 "Hg10 mi
4:20 PM68 °FPassing clouds.12 mph56%29.86 "HgN/A
3:50 PM68 °FPassing clouds.10 mph56%29.86 "HgN/A
3:20 PM66 °FSunny.12 mph56%29.86 "Hg10 mi
2:50 PM66 °FPassing clouds.9 mph60%29.86 "HgN/A
2:20 PM66 °FPassing clouds.10 mph64%29.86 "HgN/A
1:50 PM66 °FSunny.12 mph64%29.86 "Hg10 mi
1:20 PM64 °FBroken clouds.9 mph73%29.86 "HgN/A
12:50 PM64 °FPassing clouds.8 mph78%29.86 "HgN/A
12:20 PM64 °FScattered clouds.8 mph78%29.86 "HgN/A
11:50 AM64 °FBroken clouds.8 mph88%29.86 "HgN/A
11:20 AM63 °FBroken clouds.7 mph88%29.86 "HgN/A
10:50 AM63 °FBroken clouds.8 mph88%29.86 "HgN/A
10:20 AM63 °FBroken clouds.5 mph88%29.86 "HgN/A
9:50 AM63 °FPartly sunny.6 mph88%29.86 "HgN/A
9:20 AM61 °FBroken clouds.7 mph94%29.86 "HgN/A
8:50 AM61 °FBroken clouds.7 mph94%29.86 "HgN/A
8:20 AM61 °FPartly sunny.8 mph94%29.86 "HgN/A
7:50 AM59 °FPartly sunny.6 mph100%29.86 "HgN/A
7:20 AM59 °FRain. Broken clouds.7 mph94%29.86 "Hg4 mi
6:50 AM59 °FLots of rain. Partly sunny.7 mph94%29.86 "Hg5 mi
6:20 AM57 °FSprinkles. Cloudy.6 mph100%29.86 "HgN/A
5:50 AM57 °FBroken clouds.6 mph94%29.83 "HgN/A
5:20 AM57 °FMostly cloudy.6 mph94%29.86 "HgN/A
4:50 AM57 °FPartly sunny.6 mph94%29.86 "HgN/A
4:20 AM57 °FSunny.6 mph94%29.86 "Hg10 mi
3:50 AM57 °FSunny.6 mph94%29.86 "Hg10 mi
3:20 AM57 °FSunny.6 mph94%29.86 "Hg10 mi
2:50 AM57 °FSunny.5 mph94%29.86 "Hg10 mi
2:20 AM57 °FPassing clouds.5 mph94%29.86 "HgN/A
1:50 AM57 °FSunny.5 mph94%29.86 "Hg10 mi
1:20 AM59 °FSunny.6 mph88%29.86 "Hg10 mi
Weather by CustomWeather, © 2016

See weather overviewHow to use our weather pages